Regional Weather Roundup
Issued by NWS

Home | Current Version | Previous Version | Graphics & Text | Print | Product List | Glossary On
Versions: 1 2 3 4 5 6 7 8 9 10 11 12 13 14 15 16 17 18 19 20 21 22 23 24 25 26 27 28 29 30 31 32 33 34 35 36 37 38 39 40 41 42 43 44 45 46 47 48 49 50
390
ASUS43 KDTX 060510
RWRMI
MICHIGAN HOURLY REGIONAL WEATHER ROUNDUP
NATIONAL WEATHER SERVICE DETROIT/PONTIAC MI
100 AM EDT FRI MAY 06 2016

NOTE: "FAIR" INDICATES FEW OR NO CLOUDS BELOW 12,000 FEET WITH NO
SIGNIFICANT WEATHER AND/OR OBSTRUCTION TO VISIBILITY.

MIZ047>049-052>055-059>063-066>070-074>076-081>083-060600-
SOUTHEAST LOWER MICHIGAN

CITY           SKY/WX    TMP DP  RH WIND       PRES   REMARKS
ADRIAN         PTCLDY    53  40  61 N7        29.92S
ALMA           CLEAR     45  43  93 NW6       29.95R
BAD AXE        CLEAR     41  39  91 CALM      29.93S
CARO           PTCLDY    46  43  90 CALM      29.92S
DETROIT CITY   PTCLDY    52  33  48 N5        29.91R
DETROIT        PTCLDY    51  35  54 NW6       29.91R
FLINT          MOCLDY    52  38  58 NW3       29.92S
GROSSE ILE     CLEAR     50  36  57 NW5       29.89S
HILLSDALE      CLEAR     50  38  63 NW3       29.93S
HOWELL         CLEAR     53  37  54 N3        29.92S

CITY           SKY/WX    TMP DP  RH WIND       PRES   REMARKS
JACKSON        PTCLDY    50  44  80 CALM      29.93S
LAMBERTVILLE   PTCLDY    47  41  81 CALM      29.91S
LANSING        CLEAR     49  43  80 NE3       29.94R
LAPEER         FAIR      43  38  83 CALM      29.92R
MASON          MOCLDY    48  44  84 CALM      29.93S
MONROE         CLEAR     50  37  62 CALM      29.90R
MT. CLEMENS    CLEAR     47  37  65 N3        29.89S
PONTIAC        CLEAR     46  36  68 N3        29.90S
PORT HOPE        N/A     44  39  82 W5        29.91S
PORT HURON     CLEAR     46  39  76 CALM      29.91R
TRI CITIES     CLEAR     49  41  74 N3        29.94S
MIDLAND        FAIR      42  41  95 CALM      29.94R
TROY           CLEAR     53  33  46 NW5       29.92S
SAGINAW HB     CLEAR     46  43  87 CALM      29.93S
$$
MIZ043>046-050>051-056>058-064>065-071>073-077>080-060600-
SOUTHWEST LOWER MICHIGAN

CITY           SKY/WX    TMP DP  RH WIND       PRES   REMARKS
BATTLE CREEK   CLEAR     46  38  73 W7        29.95S
BENTON HARBOR  CLEAR     40  37  89 CALM      29.98S
BIG RAPIDS     CLEAR     43  35  73 CALM      29.95S
COLDWATER      CLEAR     46  40  80 W5        29.94S
FREMONT        FAIR      41  37  86 CALM      29.95S
HOLLAND        CLEAR    N/A N/A N/A W3        29.96S
GRAND RAPIDS   CLEAR     51  38  60 NW3       29.95R
IONIA          FAIR      51  40  64 NW5       29.93S
KALAMAZOO      CLEAR     47  34  60 N3        29.95S
LUDINGTON      CLEAR     37  35  94 CALM      29.95F
MARSHALL       CLEAR     47  39  75 CALM      29.93S
MOUNT PLEASANT CLEAR     46  44  92 CALM      29.94S
MUSKEGON       CLEAR     38  33  82 W3        29.96S
SOUTH HAVEN    CLEAR     40  39  95 W3        29.97S
$$
MIZ016>042-060600-
NORTHERN LOWER MICHIGAN

CITY           SKY/WX    TMP DP  RH WIND       PRES   REMARKS
ALPENA         CLEAR     46  40  79 W6        29.93S
BEAVER ISLAND  CLEAR     39  34  80 CALM      29.93S
BELLAIRE       CLEAR     37  36  94 CALM      29.95S
CADILLAC       CLEAR     36  35  96 CALM      29.93F
CHARLEVOIX     CLEAR     39  36  89 CALM      29.96S
FRANKFORT      CLEAR     37  34  89 CALM      29.94F
GAYLORD        CLEAR     38  34  85 CALM      29.93F
GRAYLING       CLEAR     37  36  96 CALM      29.95S
HARBOR SPRINGS PTCLDY    38  34  84 CALM      29.93F
HOUGHTON LAKE  CLEAR     42  40  92 CALM      29.95S
MANISTEE       CLEAR     34  28  80 CALM      29.95F
OSCODA         CLEAR     45  37  76 CALM      29.92S
PELLSTON       MOCLDY    37  35  92 CALM      29.93F
ROGERS CITY    CLEAR     45  37  74 W3        29.93F
TRAVERSE CITY  CLEAR     38  35  89 CALM      29.93F
$$
MIZ007>008-015-060600-
EASTERN UPPER MICHIGAN

CITY           SKY/WX    TMP DP  RH WIND       PRES   REMARKS
KINROSS          N/A     39  36  87 CALM      29.92S
MACKINAC ISLAN MOCLDY    42  36  78 SW5       29.92F
NEWBERRY       PTCLDY    42  37  82 S6        29.91R
S. S. MARIE    PTCLDY    39  34  82 CALM      29.91S
MUNISING         N/A     52  37  56 S14       29.86F
$$
MIZ004>006-011>014-085-060600-
CENTRAL UPPER MICHIGAN

CITY           SKY/WX    TMP DP  RH WIND       PRES   REMARKS
MANISTIQUE     PTCLDY    46  39  79 S7        29.90F
ESCANABA       CLOUDY    48  39  71 S5        29.90S
MENOMINEE      CLOUDY    48  41  76 SE8       29.90
SAWYER-GWINN   PTCLDY    49  37  63 S8        29.86S
$$
MIZ001>003-009>011-084-060600-
WESTERN UPPER MICHIGAN

CITY           SKY/WX    TMP DP  RH WIND       PRES   REMARKS
IRON MOUNTAIN  PTCLDY    50  38  63 CALM      29.88F
HOUGHTON       CLEAR     54  33  45 SW7       29.80F
COPPER HARBOR    N/A     48  25  40 SW13G20   29.79F
IRONWOOD         N/A     59  39  47 S10       29.81F
$$

ABBREVIATIONS USED IN REMARKS
   TC - TEMPERATURE IN CELSIUS
  WCI - WIND CHILL INDEX
   HX - HEAT INDEX
  VSB - VISIBILITY





USA.gov is the U.S. government's official web portal to all federal, state and local government web resources and services.